• In Schweiz
  • Länderverzeichnis
  • Für 7 Tage
  • Wassertemperatur
  • Satellitenkarten
  • Wetterkarte
  • Widgets
  • user-avatar
    Anmelden

    Stündliche Wetter Alexandria

    Heute, 22 September, Samstag

    Zeit Temperatur Niederschläge Wind Luftdruck Luftfeuchtigkeit
    00:00 +25°C° 0 mm 3 m/S 760 mmHg 74%
    01:00 +25°C° 0 mm 3 m/S 760 mmHg 75%
    02:00 +25°C° 0 mm 2 m/S 760 mmHg 76%
    03:00 +25°C° 0 mm 2 m/S 760 mmHg 76%
    04:00 +24°C° 0 mm 2 m/S 760 mmHg 76%
    05:00 +24°C° 0 mm 2 m/S 760 mmHg 77%
    06:00 +26°C° 0 mm 3 m/S 760 mmHg 71%
    07:00 +27°C° 0 mm 3 m/S 760 mmHg 66%
    08:00 +28°C° 0 mm 3 m/S 761 mmHg 60%
    09:00 +29°C° 0 mm 3 m/S 761 mmHg 55%
    10:00 +30°C° 0 mm 4 m/S 761 mmHg 49%
    11:00 +33°C° 0 mm 4 m/S 761 mmHg 44%
    12:00 +33°C° 0 mm 5 m/S 761 mmHg 44%
    13:00 +33°C° 0 mm 5 m/S 760 mmHg 44%
    14:00 +33°C° 0 mm 6 m/S 760 mmHg 44%
    15:00 +32°C° 0 mm 6 m/S 760 mmHg 48%
    16:00 +30°C° 0 mm 6 m/S 760 mmHg 53%
    17:00 +29°C° 0 mm 6 m/S 760 mmHg 57%
    18:00 +28°C° 0 mm 6 m/S 760 mmHg 62%
    19:00 +28°C° 0 mm 5 m/S 760 mmHg 67%
    20:00 +27°C° 0 mm 5 m/S 761 mmHg 73%
    21:00 +26°C° 0 mm 4 m/S 761 mmHg 74%
    22:00 +26°C° 0 mm 4 m/S 761 mmHg 75%
    23:00 +26°C° 0 mm 4 m/S 761 mmHg 77%

    Morgen, 23 September, Sonntag

    Zeit Temperatur Niederschläge Wind Luftdruck Luftfeuchtigkeit
    00:00 +26°C° 0 mm 3 m/S 761 mmHg 77%
    01:00 +25°C° 0 mm 3 m/S 761 mmHg 77%
    02:00 +25°C° 0 mm 3 m/S 761 mmHg 77%
    03:00 +25°C° 0 mm 3 m/S 761 mmHg 77%
    04:00 +25°C° 0 mm 3 m/S 761 mmHg 77%
    05:00 +25°C° 0 mm 3 m/S 761 mmHg 77%
    06:00 +26°C° 0 mm 4 m/S 761 mmHg 72%
    07:00 +27°C° 0 mm 4 m/S 761 mmHg 66%
    08:00 +28°C° 0 mm 4 m/S 762 mmHg 60%
    09:00 +29°C° 0 mm 4 m/S 762 mmHg 56%
    10:00 +32°C° 0 mm 4 m/S 762 mmHg 51%
    11:00 +33°C° 0 mm 5 m/S 762 mmHg 46%
    12:00 +33°C° 0 mm 5 m/S 761 mmHg 46%
    13:00 +33°C° 0 mm 5 m/S 761 mmHg 45%
    14:00 +33°C° 0 mm 6 m/S 760 mmHg 45%
    15:00 +32°C° 0 mm 6 m/S 760 mmHg 50%
    16:00 +30°C° 0 mm 6 m/S 760 mmHg 55%
    17:00 +29°C° 0 mm 6 m/S 760 mmHg 60%
    18:00 +28°C° 0 mm 6 m/S 760 mmHg 65%
    19:00 +27°C° 0 mm 5 m/S 761 mmHg 71%
    20:00 +27°C° 0 mm 5 m/S 761 mmHg 76%
    21:00 +26°C° 0 mm 4 m/S 761 mmHg 77%
    22:00 +26°C° 0 mm 4 m/S 761 mmHg 79%
    23:00 +26°C° 0 mm 4 m/S 761 mmHg 80%

    übermorgen, 24 September, Montag

    Zeit Temperatur Niederschläge Wind Luftdruck Luftfeuchtigkeit
    00:00 +26°C° 0 mm 4 m/S 761 mmHg 79%
    01:00 +25°C° 0 mm 3 m/S 761 mmHg 79%
    02:00 +25°C° 0 mm 3 m/S 761 mmHg 78%
    03:00 +25°C° 0 mm 3 m/S 761 mmHg 79%
    04:00 +25°C° 0 mm 3 m/S 760 mmHg 79%
    05:00 +25°C° 0 mm 3 m/S 760 mmHg 79%
    06:00 +26°C° 0 mm 3 m/S 760 mmHg 74%
    07:00 +27°C° 0 mm 3 m/S 761 mmHg 69%
    08:00 +28°C° 0 mm 3 m/S 761 mmHg 64%
    09:00 +29°C° 0 mm 3 m/S 761 mmHg 58%
    10:00 +31°C° 0 mm 3 m/S 760 mmHg 52%
    11:00 +33°C° 0 mm 4 m/S 760 mmHg 46%
    12:00 +33°C° 0 mm 4 m/S 760 mmHg 46%
    13:00 +34°C° 0 mm 5 m/S 759 mmHg 46%
    14:00 +34°C° 0 mm 5 m/S 759 mmHg 47%
    15:00 +33°C° 0 mm 6 m/S 759 mmHg 52%
    16:00 +32°C° 0 mm 6 m/S 759 mmHg 57%
    17:00 +30°C° 0 mm 6 m/S 759 mmHg 62%
    18:00 +29°C° 0 mm 5 m/S 759 mmHg 67%
    19:00 +28°C° 0 mm 5 m/S 759 mmHg 73%
    20:00 +27°C° 0 mm 4 m/S 760 mmHg 78%
    21:00 +27°C° 0 mm 4 m/S 760 mmHg 80%
    22:00 +26°C° 0 mm 3 m/S 760 mmHg 81%
    23:00 +26°C° 0 mm 3 m/S 760 mmHg 82%

    25 September, Dienstag

    Zeit Temperatur Niederschläge Wind Luftdruck Luftfeuchtigkeit
    00:00 +26°C° 0 mm 2 m/S 759 mmHg 82%
    01:00 +26°C° 0 mm 2 m/S 759 mmHg 82%
    02:00 +25°C° 0 mm 2 m/S 759 mmHg 83%
    03:00 +25°C° 0 mm 3 m/S 759 mmHg 82%
    04:00 +25°C° 0 mm 3 m/S 759 mmHg 82%
    05:00 +25°C° 0 mm 3 m/S 759 mmHg 82%
    06:00 +26°C° 0 mm 3 m/S 759 mmHg 76%
    07:00 +27°C° 0 mm 3 m/S 759 mmHg 70%
    08:00 +29°C° 0 mm 3 m/S 759 mmHg 64%
    09:00 +30°C° 0 mm 3 m/S 759 mmHg 58%
    10:00 +32°C° 0 mm 4 m/S 759 mmHg 51%
    11:00 +33°C° 0 mm 4 m/S 759 mmHg 45%
    12:00 +34°C° 0 mm 4 m/S 759 mmHg 44%
    13:00 +34°C° 0 mm 5 m/S 758 mmHg 44%
    14:00 +34°C° 0 mm 5 m/S 758 mmHg 43%
    15:00 +33°C° 0 mm 5 m/S 758 mmHg 47%
    16:00 +32°C° 0 mm 5 m/S 758 mmHg 50%
    17:00 +30°C° 0 mm 5 m/S 758 mmHg 54%
    18:00 +29°C° 0 mm 5 m/S 758 mmHg 60%
    19:00 +28°C° 0 mm 5 m/S 758 mmHg 65%
    20:00 +27°C° 0 mm 4 m/S 759 mmHg 71%
    21:00 +27°C° 0 mm 4 m/S 759 mmHg 72%
    22:00 +26°C° 0 mm 4 m/S 759 mmHg 74%
    23:00 +26°C° 0 mm 4 m/S 759 mmHg 76%

    26 September, Mittwoch

    Zeit Temperatur Niederschläge Wind Luftdruck Luftfeuchtigkeit
    00:00 +26°C° 0 mm 4 m/S 758 mmHg 77%
    01:00 +26°C° 0 mm 4 m/S 758 mmHg 78%
    02:00 +25°C° 0 mm 4 m/S 758 mmHg 79%
    03:00 +25°C° 0 mm 4 m/S 758 mmHg 80%
    04:00 +25°C° 0 mm 4 m/S 758 mmHg 81%
    05:00 +25°C° 0 mm 4 m/S 758 mmHg 82%
    06:00 +26°C° 0 mm 5 m/S 758 mmHg 77%
    07:00 +27°C° 0 mm 5 m/S 758 mmHg 72%
    08:00 +28°C° 0 mm 5 m/S 758 mmHg 67%
    09:00 +29°C° 0 mm 5 m/S 758 mmHg 62%
    10:00 +30°C° 0 mm 5 m/S 758 mmHg 56%
    11:00 +32°C° 0 mm 6 m/S 758 mmHg 50%
    12:00 +32°C° 0 mm 6 m/S 758 mmHg 51%
    13:00 +32°C° 0 mm 7 m/S 757 mmHg 52%
    14:00 +32°C° 0 mm 7 m/S 757 mmHg 52%
    15:00 +30°C° 0 mm 7 m/S 757 mmHg 57%
    16:00 +29°C° 0 mm 7 m/S 757 mmHg 61%
    17:00 +29°C° 0 mm 8 m/S 757 mmHg 65%
    18:00 +28°C° 0 mm 7 m/S 757 mmHg 69%
    19:00 +27°C° 0 mm 7 m/S 758 mmHg 72%
    20:00 +26°C° 0 mm 6 m/S 758 mmHg 75%
    21:00 +26°C° 0 mm 6 m/S 758 mmHg 75%
    22:00 +26°C° 0 mm 7 m/S 758 mmHg 75%
    23:00 +26°C° 0 mm 7 m/S 758 mmHg 75%

    27 September, Donnerstag

    Zeit Temperatur Niederschläge Wind Luftdruck Luftfeuchtigkeit
    00:00 +26°C° 0 mm 7 m/S 758 mmHg 75%
    01:00 +26°C° 0 mm 7 m/S 758 mmHg 74%
    02:00 +26°C° 0 mm 7 m/S 757 mmHg 74%
    03:00 +24°C° 0 mm 7 m/S 757 mmHg 73%
    04:00 +24°C° 0 mm 7 m/S 757 mmHg 73%
    05:00 +24°C° 0 mm 7 m/S 757 mmHg 72%
    06:00 +26°C° 0 mm 7 m/S 757 mmHg 68%
    07:00 +27°C° 0 mm 7 m/S 757 mmHg 64%
    08:00 +28°C° 0 mm 7 m/S 757 mmHg 59%
    09:00 +29°C° 0 mm 8 m/S 757 mmHg 56%
    10:00 +29°C° 0 mm 8 m/S 757 mmHg 52%
    11:00 +31°C° 0 mm 8 m/S 757 mmHg 48%
    12:00 +31°C° 0 mm 9 m/S 757 mmHg 47%
    13:00 +31°C° 0 mm 9 m/S 757 mmHg 46%
    14:00 +31°C° 0 mm 9 m/S 757 mmHg 45%
    15:00 +29°C° 0 mm 9 m/S 757 mmHg 47%
    16:00 +28°C° 0 mm 9 m/S 757 mmHg 49%
    17:00 +27°C° 0 mm 9 m/S 757 mmHg 51%
    18:00 +26°C° 0 mm 9 m/S 758 mmHg 53%
    19:00 +26°C° 0 mm 9 m/S 758 mmHg 56%
    20:00 +24°C° 0 mm 8 m/S 759 mmHg 58%
    21:00 +23°C° 0 mm 8 m/S 759 mmHg 59%
    22:00 +23°C° 0 mm 8 m/S 759 mmHg 59%
    23:00 +23°C° 0 mm 8 m/S 759 mmHg 60%
    Mehr zeigen